Previsão horária em Alle

Hoje, 15 Junho, Terça-feira

Tempo Temperatura Precipitação Vento Pressão Humidade
00:00 +14°C° 0 mm 0 m/s 710 mmHg 88%
01:00 +13°C° 0 mm 0 m/s 709 mmHg 88%
02:00 +13°C° 0 mm 0 m/s 709 mmHg 88%
03:00 +13°C° 0 mm 0 m/s 709 mmHg 88%
04:00 +14°C° 0 mm 0 m/s 709 mmHg 85%
05:00 +15°C° 0 mm 0 m/s 710 mmHg 82%
06:00 +17°C° 0 mm 0 m/s 710 mmHg 79%
07:00 +21°C° 0 mm 1 m/s 710 mmHg 73%
08:00 +22°C° 0 mm 1 m/s 710 mmHg 67%
09:00 +24°C° 0 mm 1 m/s 710 mmHg 61%
10:00 +25°C° 0 mm 1 m/s 710 mmHg 58%
11:00 +26°C° 0 mm 2 m/s 710 mmHg 55%
12:00 +27°C° 0 mm 2 m/s 710 mmHg 53%
13:00 +27°C° 0 mm 2 m/s 710 mmHg 53%
14:00 +27°C° 0 mm 2 m/s 710 mmHg 53%
15:00 +27°C° 0 mm 2 m/s 710 mmHg 54%
16:00 +26°C° 0 mm 2 m/s 710 mmHg 61%
17:00 +25°C° 0 mm 1 m/s 710 mmHg 69%
18:00 +24°C° 0 mm 1 m/s 709 mmHg 77%
19:00 +22°C° 0 mm 1 m/s 709 mmHg 81%
20:00 +20°C° 0 mm 1 m/s 709 mmHg 84%
21:00 +19°C° 0 mm 1 m/s 709 mmHg 88%
22:00 +18°C° 0 mm 1 m/s 709 mmHg 88%
23:00 +16°C° 0 mm 0 m/s 709 mmHg 88%

Amanhã, 16 Junho, Quarta-feira

Tempo Temperatura Precipitação Vento Pressão Humidade
00:00 +15°C° 0 mm 0 m/s 708 mmHg 89%
01:00 +15°C° 0 mm 0 m/s 708 mmHg 89%
02:00 +15°C° 0 mm 0 m/s 708 mmHg 89%
03:00 +15°C° 0 mm 1 m/s 708 mmHg 89%
04:00 +18°C° 0 mm 1 m/s 708 mmHg 85%
05:00 +19°C° 0 mm 1 m/s 708 mmHg 82%
06:00 +20°C° 0 mm 1 m/s 708 mmHg 79%
07:00 +22°C° 0 mm 1 m/s 708 mmHg 72%
08:00 +24°C° 0 mm 1 m/s 708 mmHg 66%
09:00 +25°C° 0 mm 1 m/s 708 mmHg 60%
10:00 +26°C° 0 mm 1 m/s 708 mmHg 57%
11:00 +27°C° 0 mm 1 m/s 708 mmHg 54%
12:00 +28°C° 0 mm 1 m/s 708 mmHg 51%
13:00 +28°C° 0 mm 1 m/s 708 mmHg 52%
14:00 +28°C° 0 mm 1 m/s 707 mmHg 53%
15:00 +28°C° 0 mm 1 m/s 707 mmHg 54%
16:00 +27°C° 0 mm 1 m/s 707 mmHg 61%
17:00 +26°C° 0 mm 1 m/s 706 mmHg 69%
18:00 +25°C° 0 mm 1 m/s 706 mmHg 76%
19:00 +23°C° 0 mm 1 m/s 706 mmHg 77%
20:00 +22°C° 0 mm 1 m/s 706 mmHg 78%
21:00 +20°C° 0 mm 1 m/s 706 mmHg 79%
22:00 +20°C° 0 mm 1 m/s 706 mmHg 78%
23:00 +20°C° 0 mm 1 m/s 706 mmHg 77%

Depois de amanhã, 17 Junho, Quinta-feira

Tempo Temperatura Precipitação Vento Pressão Humidade
00:00 +19°C° 0 mm 1 m/s 706 mmHg 77%
01:00 +19°C° 0 mm 1 m/s 706 mmHg 77%
02:00 +19°C° 0 mm 1 m/s 706 mmHg 78%
03:00 +18°C° 0 mm 1 m/s 706 mmHg 79%
04:00 +19°C° 0 mm 1 m/s 706 mmHg 77%
05:00 +20°C° 0 mm 1 m/s 706 mmHg 76%
06:00 +22°C° 0 mm 1 m/s 707 mmHg 74%
07:00 +23°C° 0 mm 1 m/s 707 mmHg 69%
08:00 +25°C° 0 mm 1 m/s 707 mmHg 64%
09:00 +27°C° 0 mm 1 m/s 707 mmHg 58%
10:00 +28°C° 0 mm 1 m/s 707 mmHg 55%
11:00 +29°C° 0 mm 1 m/s 707 mmHg 52%
12:00 +30°C° 0 mm 1 m/s 706 mmHg 49%
13:00 +30°C° 0 mm 2 m/s 706 mmHg 50%
14:00 +30°C° 0 mm 2 m/s 706 mmHg 51%
15:00 +30°C° 0 mm 2 m/s 705 mmHg 52%
16:00 +28°C° 0.2 mm 2 m/s 705 mmHg 61%
17:00 +27°C° 0.2 mm 2 m/s 705 mmHg 70%
18:00 +25°C° 0.2 mm 2 m/s 705 mmHg 79%
19:00 +23°C° 2.5 mm 2 m/s 706 mmHg 84%
20:00 +19°C° 2.5 mm 2 m/s 706 mmHg 89%
21:00 +17°C° 2.5 mm 3 m/s 707 mmHg 95%
22:00 +17°C° 0.6 mm 2 m/s 707 mmHg 95%
23:00 +17°C° 0.6 mm 2 m/s 707 mmHg 95%

18 Junho, Sexta-feira

Tempo Temperatura Precipitação Vento Pressão Humidade
00:00 +18°C° 0.6 mm 1 m/s 706 mmHg 96%
01:00 +16°C° 0 mm 1 m/s 706 mmHg 95%
02:00 +16°C° 0 mm 1 m/s 706 mmHg 94%
03:00 +16°C° 0 mm 1 m/s 706 mmHg 93%
04:00 +16°C° 0.1 mm 1 m/s 706 mmHg 91%
05:00 +18°C° 0.1 mm 1 m/s 707 mmHg 90%
06:00 +19°C° 0.1 mm 1 m/s 707 mmHg 89%
07:00 +21°C° 0 mm 1 m/s 707 mmHg 81%
08:00 +21°C° 0 mm 2 m/s 708 mmHg 73%
09:00 +24°C° 0 mm 3 m/s 708 mmHg 65%
10:00 +24°C° 0.1 mm 3 m/s 708 mmHg 66%
11:00 +25°C° 0.1 mm 3 m/s 708 mmHg 67%
12:00 +25°C° 0.1 mm 3 m/s 708 mmHg 68%
13:00 +25°C° 0.1 mm 3 m/s 708 mmHg 67%
14:00 +26°C° 0.1 mm 3 m/s 708 mmHg 65%
15:00 +26°C° 0.1 mm 3 m/s 709 mmHg 64%
16:00 +25°C° 0.4 mm 2 m/s 709 mmHg 71%
17:00 +24°C° 0.4 mm 2 m/s 709 mmHg 79%
18:00 +23°C° 0.4 mm 1 m/s 709 mmHg 87%
19:00 +21°C° 0.4 mm 1 m/s 709 mmHg 88%
20:00 +20°C° 0.4 mm 1 m/s 709 mmHg 89%
21:00 +19°C° 0.4 mm 1 m/s 709 mmHg 90%
22:00 +18°C° 0 mm 1 m/s 709 mmHg 91%
23:00 +18°C° 0 mm 1 m/s 709 mmHg 91%

19 Junho, Sábado

Tempo Temperatura Precipitação Vento Pressão Humidade
00:00 +18°C° 0 mm 1 m/s 709 mmHg 91%
01:00 +16°C° 0 mm 1 m/s 709 mmHg 91%
02:00 +16°C° 0 mm 1 m/s 709 mmHg 92%
03:00 +16°C° 0 mm 1 m/s 709 mmHg 92%
04:00 +18°C° 0 mm 1 m/s 709 mmHg 91%
05:00 +19°C° 0 mm 1 m/s 709 mmHg 90%
06:00 +20°C° 0 mm 1 m/s 709 mmHg 90%
07:00 +22°C° 0 mm 1 m/s 709 mmHg 81%
08:00 +24°C° 0 mm 2 m/s 709 mmHg 72%
09:00 +26°C° 0 mm 2 m/s 709 mmHg 63%
10:00 +27°C° 0 mm 3 m/s 709 mmHg 60%
11:00 +28°C° 0 mm 3 m/s 709 mmHg 56%
12:00 +29°C° 0 mm 4 m/s 709 mmHg 52%
13:00 +30°C° 0 mm 4 m/s 708 mmHg 52%
14:00 +30°C° 0 mm 3 m/s 708 mmHg 52%
15:00 +30°C° 0 mm 3 m/s 707 mmHg 51%
16:00 +29°C° 0 mm 3 m/s 707 mmHg 58%
17:00 +28°C° 0 mm 3 m/s 706 mmHg 65%
18:00 +26°C° 0 mm 3 m/s 706 mmHg 72%
19:00 +25°C° 0 mm 3 m/s 706 mmHg 76%
20:00 +23°C° 0 mm 2 m/s 706 mmHg 80%
21:00 +21°C° 0 mm 2 m/s 705 mmHg 84%
22:00 +21°C° 0 mm 2 m/s 705 mmHg 85%
23:00 +20°C° 0 mm 2 m/s 705 mmHg 86%

20 Junho, Domingo

Tempo Temperatura Precipitação Vento Pressão Humidade
00:00 +21°C° 0 mm 1 m/s 705 mmHg 87%
01:00 +21°C° 0 mm 1 m/s 705 mmHg 88%
02:00 +20°C° 0 mm 1 m/s 705 mmHg 88%
03:00 +20°C° 0 mm 1 m/s 705 mmHg 88%
04:00 +21°C° 0.1 mm 1 m/s 706 mmHg 86%
05:00 +20°C° 0.1 mm 2 m/s 706 mmHg 84%
06:00 +21°C° 0.1 mm 2 m/s 707 mmHg 82%
07:00 +23°C° 0 mm 2 m/s 707 mmHg 78%
08:00 +24°C° 0 mm 1 m/s 707 mmHg 74%
09:00 +25°C° 0 mm 1 m/s 707 mmHg 70%
10:00 +26°C° 0.2 mm 1 m/s 707 mmHg 67%
11:00 +27°C° 0.2 mm 1 m/s 707 mmHg 64%
12:00 +28°C° 0.2 mm 2 m/s 707 mmHg 61%
13:00 +25°C° 5.9 mm 2 m/s 707 mmHg 72%
14:00 +21°C° 5.9 mm 2 m/s 707 mmHg 83%
15:00 +18°C° 5.9 mm 3 m/s 707 mmHg 94%
16:00 +18°C° 0.1 mm 2 m/s 707 mmHg 93%
17:00 +19°C° 0.1 mm 2 m/s 707 mmHg 93%
18:00 +20°C° 0.1 mm 1 m/s 707 mmHg 92%
19:00 +19°C° 0.1 mm 1 m/s 707 mmHg 93%
20:00 +18°C° 0.1 mm 1 m/s 707 mmHg 94%
21:00 +18°C° 0.1 mm 1 m/s 707 mmHg 95%
22:00 +16°C° 0.1 mm 1 m/s 707 mmHg 96%
23:00 +16°C° 0.1 mm 1 m/s 706 mmHg 96%
Mostrar mais